Location: Anjeux
(47.8815°N, 6.2076°E)
Time: 11:04:57
(UTC+00:00)

AO-27 - Pass Details

Date: 11 December 2021
Orbit: 784 x 798 km, 98.9° (Epoch: 24 January)

Event Time Altitude Azimuth Distance (km) Brightness Sun altitude
Rises 19:27:08 0° 211° (SSW) 3,290 11.2 -36.5°
Reaches altitude 10° 19:30:19 10° 232° (SW) 2,367 10.6 -37.1°
Maximum altitude 19:33:35 17° 271° (W) 1,948 10.3 -37.6°
Drops below altitude 10° 19:36:53 10° 310° (NW) 2,380 10.7 -38.2°
Sets 19:40:07 0° 331° (NNW) 3,315 11.3 -38.7°
